sat.trackr.live / text

‹ back to catalog

ONEWEB-0011

NORAD 44062 · 2019-010F

PAYLOAD ACTIVE UNKNOWN

§ Identity

Operator
Country
UK
Launch date
2019-02-27
Launch site
FRGUI
Launch vehicle
Mass (kg)
RCS (m²)

Purposes: comms

External: N2YO · Heavens-Above · Gunter

§ Orbital elements

Epoch: 2026-05-25T00:54:23.901696Z

Period
109.46 min
Inclination
87.9002°
Eccentricity
0.0001772
Mean motion
13.15549226 rev/d
Perigee alt
1,200.4 km
Apogee alt
1,203.1 km
Semi-major
7,579.9 km
B*
-1.8866e-4
RAAN
263.8055°
Arg perigee
105.2034°
Mean anomaly
254.9293°
Rev number
34,837

§ Raw data

ONEWEB-00111 44062U 19010F   26145.03777664 -.00000058  00000+0 -18866-3 0  99912 44062  87.9002 263.8055 0001772 105.2034 254.9293 13.15549226348372

JSON: /api/v1/satellites/44062 · /tle

For live sub-satellite position, see the globe view (requires WebGL).

§ Visibility from observer

Set your observer location to see the next 7 days of passes ≥ 10°. The values pass through the URL so the page stays shareable.

No JS? Fill the form by hand. The geolocation button needs JavaScript.